User: anonymous   Login
Location: Vancouver
(49.2500°N, 123.1330°W)
Time: 18:24:50
(UTC-08:00)
Language:

ERS-2 - Orbit

View from above orbital plane
View from above orbital plane
View from above satellite
View from above satellite

Ground track
Ground track

The orbit data is extracted from the following two-line orbital elements,

1 23560U 95021A   15064.52444859  .00008265  00000-0  45728-3 0  9990
2 23560 098.5391 300.8245 0003094 255.3669 104.7223 15.14168853 48752
Epoch (UTC): 05 March 2015 12:35:12
Eccentricity: 0.0003094
inclination: 98.5391°
perigee height: 521 km
apogee height: 525 km
right ascension of ascending node: 300.8245°
argument of perigee: 255.3669°
revolutions per day: 15.14168853
mean anomaly at epoch: 104.7223°
orbit number at epoch: 4875

The dashed part of the orbit path shows where the satellite is in the earth's shadow,  

DLR